Weather History for Newberry, MI

Change the Weather History Date:

Wednesday, March 26, 2014

  Actual Average Record
Temperature  
Mean Temperature 8 °F -  
Max Temperature 24 °F 38 °F 67 °F (1945)
Min Temperature -7 °F 20 °F -20 °F (1923)
Degree Days  
Heating Degree Days 56    
Moisture  
Dew Point 4 °F    
Average Humidity 73    
Maximum Humidity 91    
Minimum Humidity 49    
Precipitation  
Precipitation 0.00 in - - ()
Sea Level Pressure  
Sea Level Pressure 30.11 in    
Wind  
Wind Speed 9 mph (SSW)    
Max Wind Speed 20 mph    
Max Gust Speed 26 mph    
Visibility 10 miles    
Events      
Averages and records for this station are not official NWS values.
T = Trace of Precipitation, MM = Missing Value Source: NWS Daily Summary

Daily Weather History Graph

Daily Weather History Graph

Search for Another Location

Airport:

Trip Planner

Search our weather history database for the weather conditions in past years. The results will help you decide how hot, cold, wet, or windy it might be!

Date:

Astronomy

Mar. 26, 2014 Rise Set
Actual Time 7:33 AM EDT 8:02 PM EDT
Civil Twilight 7:03 AM EDT 8:32 PM EDT
Nautical Twilight 6:27 AM EDT 9:08 PM EDT
Astronomical Twilight 5:50 AM EDT 9:45 PM EDT
Moon 4:55 AM EDT (3/26) 3:26 PM EDT (3/26)
Length of Visible Light 13h 29m
Length of Day
12h 29m
Waning Crescent, 22% of the Moon is Illuminated
Mar 26
Waning Crescent
Mar 30
New
Apr 7
First Quarter
Apr 15
Full
Apr 22
Last Quarter

Hourly Weather History & Observations

Time (EDT) Temp. Windchill Dew Point Humidity Pressure Visibility Wind Dir Wind Speed Gust Speed Precip Events Conditions
12:15 AM -7.6 °F -23.4 °F -10.3 °F 88% 30.11 in 10.0 mi SW 8.1 mph - N/A   Clear
12:34 AM -4.2 °F -19.3 °F -7.1 °F 87% 30.10 in 10.0 mi SW 8.1 mph - N/A   Clear
12:55 AM -2.9 °F -17.7 °F -6.0 °F 87% 30.11 in 10.0 mi SW 8.1 mph - N/A   Clear
1:15 AM -2.6 °F -17.3 °F -5.4 °F 87% 30.11 in 10.0 mi SW 8.1 mph - N/A   Clear
1:35 AM -2.4 °F -17.1 °F -5.4 °F 87% 30.11 in 10.0 mi SW 8.1 mph - N/A   Clear
1:55 AM -4.0 °F -20.2 °F -6.2 °F 90% 30.11 in 10.0 mi SSW 9.2 mph - N/A   Clear
2:14 AM -2.2 °F -16.8 °F -4.9 °F 88% 30.11 in 10.0 mi SW 8.1 mph - N/A   Scattered Clouds
2:35 AM -1.8 °F -16.4 °F -4.2 °F 90% 30.12 in 10.0 mi SW 8.1 mph - N/A   Scattered Clouds
2:55 AM -2.4 °F -15.8 °F -4.7 °F 90% 30.11 in 10.0 mi SW 6.9 mph - N/A   Clear
3:14 AM -3.3 °F -19.3 °F -5.3 °F 91% 30.11 in 10.0 mi SSW 9.2 mph - N/A   Clear
3:35 AM -1.3 °F -15.7 °F -4.2 °F 88% 30.11 in 10.0 mi SW 8.1 mph - N/A   Clear
3:54 AM -1.7 °F -16.2 °F -4.5 °F 88% 30.11 in 10.0 mi SW 8.1 mph - N/A   Clear
4:15 AM -0.9 °F -14.1 °F -4.5 °F 85% 30.11 in 10.0 mi SW 6.9 mph - N/A   Clear
4:35 AM -0.2 °F -14.4 °F -3.8 °F 85% 30.12 in 10.0 mi SW 8.1 mph - N/A   Clear
4:54 AM 0.1 °F -14.0 °F -3.8 °F 83% 30.13 in 10.0 mi SW 8.1 mph - N/A   Clear
5:15 AM -0.2 °F -14.4 °F -3.8 °F 85% 30.13 in 10.0 mi SW 8.1 mph - N/A   Scattered Clouds
5:35 AM -0.9 °F -15.3 °F -4.2 °F 86% 30.13 in 10.0 mi SW 8.1 mph - N/A   Overcast
5:54 AM -2.4 °F -17.1 °F -5.1 °F 88% 30.12 in 10.0 mi SW 8.1 mph - N/A   Scattered Clouds
6:15 AM -2.4 °F -15.8 °F -5.1 °F 88% 30.12 in 10.0 mi SW 6.9 mph - N/A   Clear
6:35 AM -3.1 °F -16.7 °F -5.1 °F 91% 30.13 in 10.0 mi SW 6.9 mph - N/A   Clear
6:55 AM -4.0 °F -17.8 °F -6.5 °F 89% 30.13 in 10.0 mi SW 6.9 mph - N/A   Clear
7:15 AM -4.7 °F -18.6 °F -6.9 °F 90% 30.14 in 10.0 mi SW 6.9 mph - N/A   Clear
7:34 AM -5.3 °F -19.3 °F -7.6 °F 90% 30.14 in 10.0 mi SW 6.9 mph - N/A   Clear
7:55 AM -4.7 °F -18.6 °F -6.9 °F 90% 30.15 in 10.0 mi SSW 6.9 mph - N/A   Clear
8:15 AM -3.1 °F -17.9 °F -5.8 °F 88% 30.15 in 10.0 mi SW 8.1 mph - N/A   Clear
8:34 AM -0.6 °F -14.9 °F -4.4 °F 84% 30.16 in 10.0 mi SW 8.1 mph - N/A   Clear
8:55 AM 2.3 °F -10.2 °F -2.9 °F 79% 30.16 in 10.0 mi SW 6.9 mph - N/A   Clear
9:15 AM 5.0 °F -6.9 °F -1.7 °F 74% 30.17 in 10.0 mi SW 6.9 mph - N/A   Clear
9:34 AM 5.4 °F -5.2 °F -1.8 °F 72% 30.17 in 10.0 mi SW 5.8 mph - N/A   Clear
9:55 AM 6.3 °F -0.7 °F -0.4 °F 74% 30.17 in 10.0 mi SSW 3.5 mph - N/A   Clear
10:15 AM 8.8 °F 2.2 °F 1.6 °F 73% 30.17 in 10.0 mi South 3.5 mph - N/A   Clear
10:35 AM 11.1 °F 3.1 °F 3.0 °F 70% 30.18 in 10.0 mi South 4.6 mph - N/A   Clear
10:55 AM 13.5 °F 7.5 °F 4.1 °F 66% 30.17 in 10.0 mi South 3.5 mph - N/A   Clear
11:14 AM 16.0 °F 10.4 °F 5.7 °F 64% 30.17 in 10.0 mi WSW 3.5 mph - N/A   Clear
11:35 AM 17.4 °F 7.1 °F 5.5 °F 60% 30.17 in 10.0 mi SW 8.1 mph - N/A   Clear
11:55 AM 18.5 °F 6.8 °F 6.1 °F 58% 30.17 in 10.0 mi SSW 10.4 mph - N/A   Clear
12:14 PM 19.9 °F 11.1 °F 4.8 °F 52% 30.16 in 10.0 mi SSW 6.9 mph - N/A   Clear
12:35 PM 19.9 °F 9.3 °F 4.6 °F 52% 30.16 in 10.0 mi SSW 9.2 mph - N/A   Mostly Cloudy
12:54 PM 21.2 °F 10.1 °F 4.8 °F 49% 30.16 in 10.0 mi SW 10.4 mph - N/A   Mostly Cloudy
1:15 PM 22.1 °F 12.0 °F 6.6 °F 51% 30.15 in 10.0 mi SSW 9.2 mph 16.1 mph N/A   Scattered Clouds
1:34 PM 22.3 °F 12.2 °F 6.3 °F 50% 30.15 in 10.0 mi South 9.2 mph - N/A   Clear
1:55 PM 22.6 °F 12.6 °F 8.6 °F 55% 30.15 in 10.0 mi South 9.2 mph 17.3 mph N/A   Scattered Clouds
2:15 PM 23.4 °F 11.6 °F 9.3 °F 55% 30.14 in 10.0 mi South 12.7 mph - N/A   Scattered Clouds
2:35 PM 23.7 °F 11.0 °F 8.2 °F 52% 30.13 in 10.0 mi SSW 15.0 mph 23.0 mph N/A   Mostly Cloudy
2:55 PM 24.1 °F 11.0 °F 7.9 °F 50% 30.13 in 10.0 mi SSW 16.1 mph 20.7 mph N/A   Mostly Cloudy
3:14 PM 23.7 °F 10.5 °F 7.5 °F 50% 30.12 in 10.0 mi SW 16.1 mph 19.6 mph N/A   Scattered Clouds
3:35 PM 24.1 °F 13.1 °F 7.7 °F 50% 30.11 in 10.0 mi SW 11.5 mph 20.7 mph N/A   Clear
3:55 PM 24.4 °F 11.5 °F 7.7 °F 49% 30.11 in 10.0 mi SSW 16.1 mph 23.0 mph N/A   Clear
4:14 PM 23.5 °F 10.8 °F 8.2 °F 52% 30.11 in 10.0 mi South 15.0 mph 24.2 mph N/A   Clear
4:35 PM 23.5 °F 10.8 °F 9.0 °F 54% 30.10 in 10.0 mi South 15.0 mph 21.9 mph N/A   Clear
4:55 PM 23.0 °F 10.1 °F 9.7 °F 57% 30.09 in 10.0 mi South 15.0 mph 20.7 mph N/A   Clear
5:14 PM 23.0 °F 9.2 °F 9.3 °F 56% 30.09 in 10.0 mi SSW 17.3 mph 23.0 mph N/A   Clear
5:35 PM 22.8 °F 8.9 °F 10.2 °F 59% 30.08 in 10.0 mi SSW 17.3 mph 26.5 mph N/A   Clear
5:55 PM 22.1 °F 8.5 °F 11.1 °F 63% 30.08 in 10.0 mi South 16.1 mph 25.3 mph N/A   Scattered Clouds
6:15 PM 22.1 °F 8.0 °F 10.9 °F 62% 30.08 in 10.0 mi South 17.3 mph 23.0 mph N/A   Mostly Cloudy
6:35 PM 21.4 °F 6.2 °F 11.1 °F 65% 30.07 in 10.0 mi SSW 19.6 mph 25.3 mph N/A   Scattered Clouds
6:54 PM 21.2 °F 7.3 °F 11.3 °F 66% 30.07 in 10.0 mi SSW 16.1 mph 20.7 mph N/A   Mostly Cloudy
7:15 PM 21.2 °F 8.3 °F 11.8 °F 67% 30.07 in 10.0 mi SSW 13.8 mph - N/A   Scattered Clouds
7:35 PM 21.2 °F 7.8 °F 12.2 °F 68% 30.06 in 10.0 mi SSW 15.0 mph 19.6 mph N/A   Mostly Cloudy
7:54 PM 21.0 °F 7.6 °F 12.2 °F 69% 30.06 in 10.0 mi South 15.0 mph 19.6 mph N/A   Overcast
8:15 PM 20.5 °F 9.2 °F 12.4 °F 71% 30.05 in 10.0 mi South 10.4 mph 19.6 mph N/A   Mostly Cloudy
8:34 PM 20.3 °F 8.3 °F 12.7 °F 73% 30.04 in 10.0 mi SSW 11.5 mph - N/A   Overcast
8:55 PM 20.3 °F 9.0 °F 13.1 °F 74% 30.04 in 10.0 mi South 10.4 mph - N/A   Overcast
9:15 PM 19.8 °F 9.1 °F 13.1 °F 75% 30.04 in 10.0 mi South 9.2 mph - N/A   Overcast
9:34 PM 19.0 °F 9.0 °F 13.5 °F 79% 30.04 in 10.0 mi South 8.1 mph - N/A   Mostly Cloudy
9:55 PM 19.4 °F 7.9 °F 14.0 °F 80% 30.03 in 10.0 mi South 10.4 mph - N/A   Mostly Cloudy
10:15 PM 19.2 °F 10.2 °F 14.0 °F 80% 30.03 in 10.0 mi South 6.9 mph - N/A   Overcast
10:34 PM 19.9 °F 10.1 °F 14.0 °F 78% 30.02 in 10.0 mi South 8.1 mph - N/A   Overcast
10:54 PM 20.1 °F 11.3 °F 14.0 °F 77% 30.02 in 10.0 mi South 6.9 mph - N/A   Overcast
11:15 PM 20.5 °F 10.8 °F 14.5 °F 78% 30.02 in 10.0 mi South 8.1 mph - N/A   Overcast
11:35 PM 21.0 °F 10.6 °F 14.9 °F 77% 30.02 in 10.0 mi South 9.2 mph - N/A   Overcast
11:55 PM 20.8 °F 11.2 °F 14.7 °F 77% 30.01 in 10.0 mi South 8.1 mph - N/A   Overcast